This is the latest recevied weather packets stored in our database for station/object IW2LSY-11. If no packets are shown the sender has not sent any weather packets the latest 10 day(s).
| Time | Temp. | Humidity | Pressure | Rain* | Wind** | Luminosity | Snow |
|---|---|---|---|---|---|---|---|
| 1777800607 | 22.78° C | 33% | 1018.4 hPa | - | - | 473 W/m² | - |
| 1777800007 | 21.67° C | 35% | 1018.5 hPa | - | - | 466 W/m² | - |
| 1777799408 | 22.22° C | 37% | 1018.7 hPa | - | - | 458 W/m² | - |
| 1777798808 | 21.67° C | 38% | 1018.9 hPa | - | - | 459 W/m² | - |
| 1777798209 | 21.11° C | 38% | 1019 hPa | - | - | 453 W/m² | - |
| 1777797609 | 21.11° C | 38% | 1019.1 hPa | - | - | 451 W/m² | - |
| 1777797009 | 21.11° C | 38% | 1019.2 hPa | - | - | 452 W/m² | - |
| 1777796410 | 20° C | 40% | 1019.4 hPa | - | - | 453 W/m² | - |
| 1777795810 | 19.44° C | 40% | 1019.5 hPa | - | - | 453 W/m² | - |
| 1777795210 | 20° C | 40% | 1019.5 hPa | - | - | 453 W/m² | - |
| 1777794610 | 20° C | 41% | 1019.7 hPa | - | - | 453 W/m² | - |
| 1777794010 | 20.56° C | 40% | 1019.7 hPa | - | - | 453 W/m² | - |
| 1777793411 | 20.56° C | 42% | 1019.9 hPa | - | - | 454 W/m² | - |
| 1777792811 | 20.56° C | 40% | 1020 hPa | - | - | 455 W/m² | - |
| 1777792211 | 21.11° C | 39% | 1020.1 hPa | - | - | 455 W/m² | - |
| 1777791611 | 20° C | 42% | 1020.3 hPa | - | - | 455 W/m² | - |
| 1777791012 | 17.78° C | 47% | 1020.4 hPa | - | - | 456 W/m² | - |
| 1777790412 | 17.22° C | 50% | 1020.4 hPa | - | - | 456 W/m² | - |
| 1777789813 | 16.67° C | 49% | 1020.5 hPa | - | - | 456 W/m² | - |
| 1777789213 | 16.67° C | 51% | 1020.7 hPa | - | - | 458 W/m² | - |
| 1777788613 | 12.78° C | 63% | 1020.9 hPa | - | - | 458 W/m² | - |
| 1777788013 | 14.44° C | 56% | 1020.8 hPa | - | - | 458 W/m² | - |
| 1777787414 | 16.11° C | 52% | 1020.8 hPa | - | - | 458 W/m² | - |
| 1777786814 | 15° C | 55% | 1020.9 hPa | - | - | 459 W/m² | - |
| 1777786214 | 15° C | 57% | 1021 hPa | - | - | 460 W/m² | - |
* Rain since midnight (hover to see other rain measurements)
** Current wind speed in m/s (hover to see current wind gust speed)